Location: ?????
(55.6500°N, 37.2500°E)
Time: 14:36:52
(UTC+00:00)

Lacrosse 4 Rocket - Pass Details

Date: 19 May 2025
Orbit: 513 x 576 km, 68.0° (Epoch: 19 June)

Event Time Altitude Azimuth Distance (km) Brightness Sun altitude
Rises 23:40:02 0° 319° (NW) 2,712 5.1 -9.3°
Reaches altitude 10° 23:42:22 10° 329° (NNW) 1,828 4.4 -9.1°
Maximum altitude 23:46:08 34° 36° (NE) 922 3.3 -8.9°
Drops below altitude 10° 23:49:57 10° 102° (ESE) 1,856 4.3 -8.6°
Sets 23:52:20 0° 112° (ESE) 2,759 5.1 -8.4°
